FW2584 Weather Reports


Display with metric or nautical units.
time (UTC)temp
F
wind
direction
speed
MPH
gust
MPH
rain 1hr
in
rain 24hr
in
rain mn
in
humidity
%
barometer
mb
20260505223524 78 0 0.0 4.0 0.00 0.00 0.00 49 1014.5
20260505223041 79 0 0.0 4.0 0.00 0.00 0.00 48 1014.5
20260505222525 79 0 0.0 4.0 0.00 0.00 0.00 47 1014.5
20260505222022 79 0 0.0 4.0 0.00 0.00 0.00 48 1014.5
20260505221543 79 0 0.0 1.0 0.00 0.00 0.00 48 1014.6
20260505221021 79 68 0.0 3.0 0.00 0.00 0.00 50 1014.6
20260505220520 79 0 0.0 3.0 0.00 0.00 0.00 49 1014.6
20260505220051 79 0 0.0 1.0 0.00 0.00 0.00 48 1014.5
20260505215522 79 0 0.0 1.0 0.00 0.00 0.00 51 1014.7
20260505215021 79 0 0.0 3.0 0.00 0.00 0.00 51 1014.6
20260505214537 79 0 0.0 3.0 0.00 0.00 0.00 51 1014.6
20260505214023 79 0 0.0 1.0 0.00 0.00 0.00 51 1014.7
20260505213527 79 0 0.0 1.0 0.00 0.00 0.00 50 1014.6
20260505213035 79 0 0.0 1.0 0.00 0.00 0.00 51 1014.6
20260505212521 79 0 0.0 1.0 0.00 0.00 0.00 51 1014.7
20260505212027 79 0 0.0 0.0 0.00 0.00 0.00 53 1014.7
20260505211533 79 0 0.0 0.0 0.00 0.00 0.00 53 1014.7
20260505211024 79 0 0.0 2.0 0.00 0.00 0.00 52 1014.8
20260505210521 79 0 0.0 5.0 0.00 0.00 0.00 53 1014.8
20260505210037 79 0 0.0 5.0 0.00 0.00 0.00 51 1014.7
20260505205522 80 211 0.0 4.0 0.00 0.00 0.00 52 1014.8
20260505205022 80 121 0.0 4.0 0.00 0.00 0.00 51 1014.8
20260505204539 80 0 1.0 4.0 0.00 0.00 0.00 51 1014.9
20260505204022 80 131 0.0 4.0 0.00 0.00 0.00 51 1014.7
20260505203522 79 0 0.0 1.0 0.00 0.00 0.00 51 1014.9
20260505203039 79 0 0.0 8.0 0.00 0.00 0.00 53 1015.0
20260505202522 79 0 0.0 8.0 0.00 0.00 0.00 52 1014.9
20260505202023 80 0 0.0 1.0 0.00 0.00 0.00 52 1015.0
20260505201535 80 0 0.0 1.0 0.00 0.00 0.00 51 1015.0
20260505201021 80 0 0.0 4.0 0.00 0.00 0.00 50 1015.0
20260505200523 80 0 0.0 6.0 0.00 0.00 0.00 50 1015.1
20260505200040 81 0 0.0 7.0 0.00 0.00 0.00 52 1015.3
20260505195520 80 125 0.0 7.0 0.00 0.00 0.00 50 1015.2
20260505195022 81 0 1.0 7.0 0.00 0.00 0.00 50 1015.2
20260505194538 81 0 0.0 1.0 0.00 0.00 0.00 49 1015.2
20260505194022 80 0 0.0 1.0 0.00 0.00 0.00 51 1015.3
20260505193524 80 0 0.0 8.0 0.00 0.00 0.00 53 1015.3
20260505193048 80 0 0.0 8.0 0.00 0.00 0.00 50 1015.5
20260505192522 82 0 1.0 8.0 0.00 0.00 0.00 48 1015.5
20260505192021 82 0 0.0 5.0 0.00 0.00 0.00 50 1015.5
20260505191541 81 0 1.0 5.0 0.00 0.00 0.00 50 1015.5
20260505191022 81 0 0.0 4.0 0.00 0.00 0.00 50 1015.7
20260505190521 81 0 0.0 1.0 0.00 0.00 0.00 49 1015.8
20260505190033 80 0 0.0 3.0 0.00 0.00 0.00 52 1016.0
20260505185524 80 0 0.0 3.0 0.00 0.00 0.00 53 1016.1
20260505185020 80 0 0.0 3.0 0.00 0.00 0.00 50 1015.9
20260505184533 80 0 0.0 3.0 0.00 0.00 0.00 51 1016.1
20260505184023 81 0 0.0 4.0 0.00 0.00 0.00 50 1016.2
20260505183521 80 134 0.0 6.0 0.00 0.00 0.00 52 1016.2
20260505183038 80 134 2.0 6.0 0.00 0.00 0.00 49 1016.1
20260505182521 80 0 0.0 8.0 0.00 0.00 0.00 50 1016.3
20260505182019 80 0 0.0 8.0 0.00 0.00 0.00 53 1016.3
20260505181546 80 0 2.0 8.0 0.00 0.00 0.00 49 1016.2
20260505181023 80 300 2.0 8.0 0.00 0.00 0.00 49 1016.2
20260505180523 80 0 0.0 3.0 0.00 0.00 0.00 52 1016.3
20260505180038 79 0 0.0 9.0 0.00 0.00 0.00 54 1016.4
20260505175523 79 0 0.0 9.0 0.00 0.00 0.00 51 1016.4
20260505175020 79 0 0.0 2.0 0.00 0.00 0.00 52 1016.5
20260505174533 79 0 0.0 5.0 0.00 0.00 0.00 54 1016.5
20260505174021 80 0 1.0 5.0 0.00 0.00 0.00 52 1016.5
20260505173521 80 0 0.0 5.0 0.00 0.00 0.00 53 1016.5
20260505173035 80 0 1.0 5.0 0.00 0.00 0.00 51 1016.6
20260505172520 79 0 0.0 6.0 0.00 0.00 0.00 52 1016.7
20260505172024 79 242 1.0 6.0 0.00 0.00 0.00 50 1016.9
20260505171535 79 0 1.0 6.0 0.00 0.00 0.00 51 1016.8
20260505171025 79 0 0.0 5.0 0.00 0.00 0.00 51 1016.9
20260505170521 79 0 0.0 4.0 0.00 0.00 0.00 53 1016.8
20260505170039 79 242 1.0 4.0 0.00 0.00 0.00 53 1017.0
20260505165523 79 0 1.0 4.0 0.00 0.00 0.00 52 1017.0
20260505165023 79 225 0.0 4.0 0.00 0.00 0.00 54 1017.0
20260505164533 79 0 0.0 4.0 0.00 0.00 0.00 54 1017.1
20260505164111 78 0 0.0 4.0 0.00 0.00 0.00 55 1017.1
20260505163522 78 171 0.0 4.0 0.00 0.00 0.00 55 1017.1
20260505163034 78 0 0.0 4.0 0.00 0.00 0.00 55 1017.1
20260505162528 77 0 0.0 4.0 0.00 0.00 0.00 59 1017.2
20260505162023 77 0 0.0 4.0 0.00 0.00 0.00 58 1017.3
20260505161542 77 0 0.0 5.0 0.00 0.00 0.00 57 1017.5
20260505161022 77 0 0.0 5.0 0.00 0.00 0.00 59 1017.7
20260505160526 77 0 1.0 5.0 0.00 0.00 0.00 56 1017.6
20260505153033 75 0 0.0 4.0 0.00 0.00 0.00 62 1018.2
20260505152520 75 224 0.0 3.0 0.00 0.00 0.00 63 1018.2
20260505152024 75 0 0.0 3.0 0.00 0.00 0.00 64 1018.2
20260505151534 75 0 0.0 1.0 0.00 0.00 0.00 65 1018.2
20260505151022 74 0 0.0 6.0 0.00 0.00 0.00 67 1018.1
20260505150526 74 0 0.0 6.0 0.00 0.00 0.00 65 1018.1
20260505140523 69 0 0.0 4.0 0.00 0.00 0.00 74 1018.1
20260505125020 61 0 0.0 2.0 0.00 0.00 0.00 87 1018.1
20260505124546 60 0 0.0 2.0 0.00 0.00 0.00 89 1018.1
20260505124023 59 0 0.0 0.0 0.00 0.00 0.00 90 1017.9
20260505123520 58 0 0.0 0.0 0.00 0.00 0.00 92 1017.9
20260505123038 58 0 0.0 0.0 0.00 0.00 0.00 93 1017.9
20260505122520 57 0 0.0 0.0 0.00 0.00 0.00 94 1017.9
20260505122022 56 0 0.0 0.0 0.00 0.00 0.00 95 1017.9
20260505121538 55 0 0.0 1.0 0.00 0.00 0.00 96 1017.9
20260505121021 55 0 0.0 1.0 0.00 0.00 0.00 96 1018.0
20260505120526 54 0 0.0 1.0 0.00 0.00 0.00 96 1018.0
20260505120036 54 0 0.0 0.0 0.00 0.00 0.00 96 1017.9
20260505115520 53 0 0.0 0.0 0.00 0.00 0.00 96 1017.8
20260505115022 53 0 0.0 0.0 0.00 0.00 0.00 96 1017.8
20260505114535 52 0 0.0 0.0 0.00 0.00 0.00 96 1017.9
20260505114024 52 0 0.0 0.0 0.00 0.00 0.00 96 1017.8
20260505113526 52 0 0.0 0.0 0.00 0.00 0.00 96 1017.7
20260505113038 51 0 0.0 0.0 0.00 0.00 0.00 96 1017.7
20260505112525 51 0 0.0 0.0 0.00 0.00 0.00 96 1017.6
20260505112023 51 0 0.0 0.0 0.00 0.00 0.00 96 1017.5
20260505111534 51 0 0.0 0.0 0.00 0.00 0.00 95 1017.6
20260505111023 50 0 0.0 0.0 0.00 0.00 0.00 95 1017.6
20260505110522 50 0 0.0 0.0 0.00 0.00 0.00 95 1017.6
20260505102021 51 0 0.0 0.0 0.00 0.00 0.00 94 1016.6
20260505101542 51 0 0.0 0.0 0.00 0.00 0.00 94 1016.5
20260505101023 51 0 0.0 0.0 0.00 0.00 0.00 93 1016.5
20260505100523 51 0 0.0 0.0 0.00 0.00 0.00 93 1016.5
20260505100035 51 0 0.0 0.0 0.00 0.00 0.00 93 1016.5
20260505095520 51 0 0.0 0.0 0.00 0.00 0.00 93 1016.5
20260505095020 51 0 0.0 0.0 0.00 0.00 0.00 93 1016.5
20260505094532 52 0 0.0 0.0 0.00 0.00 0.00 93 1016.4
20260505094021 52 0 0.0 0.0 0.00 0.00 0.00 93 1016.5
20260505093521 52 0 0.0 0.0 0.00 0.00 0.00 93 1016.4
20260505093034 52 0 0.0 0.0 0.00 0.00 0.00 92 1016.5
20260505092522 52 0 0.0 0.0 0.00 0.00 0.00 91 1016.5
20260505092023 52 0 0.0 0.0 0.00 0.00 0.00 91 1016.4
20260505091536 52 0 0.0 0.0 0.00 0.00 0.00 91 1016.3
20260505091022 52 0 0.0 0.0 0.00 0.00 0.00 91 1016.2
20260505090522 53 0 0.0 0.0 0.00 0.00 0.00 90 1016.3
20260505090042 53 0 0.0 0.0 0.00 0.00 0.00 90 1016.3
20260505085524 53 0 0.0 0.0 0.00 0.00 0.00 89 1016.3
20260505085022 53 0 0.0 0.0 0.00 0.00 0.00 88 1016.3
20260505084545 53 0 0.0 0.0 0.00 0.00 0.00 88 1016.2
20260505084022 54 0 0.0 0.0 0.00 0.00 0.00 88 1016.2
20260505083525 54 0 0.0 0.0 0.00 0.00 0.00 88 1016.0
20260505083048 54 0 0.0 0.0 0.00 0.00 0.00 88 1016.0
20260505082520 54 0 0.0 0.0 0.00 0.00 0.00 88 1016.0
20260505082023 54 0 0.0 0.0 0.00 0.00 0.00 87 1016.0
20260505081535 54 0 0.0 0.0 0.00 0.00 0.00 87 1016.0
20260505081024 54 0 0.0 0.0 0.00 0.00 0.00 86 1016.0
20260505080524 55 0 0.0 0.0 0.00 0.00 0.00 86 1016.0
20260505080043 55 0 0.0 0.0 0.00 0.00 0.00 86 1015.9
20260505075520 55 0 0.0 0.0 0.00 0.00 0.00 86 1015.8
20260505075023 55 0 0.0 0.0 0.00 0.00 0.00 85 1015.8
20260505074535 55 0 0.0 0.0 0.00 0.00 0.00 85 1015.9
20260505074021 55 0 0.0 0.0 0.00 0.00 0.00 85 1015.9
20260505073523 55 0 0.0 0.0 0.00 0.00 0.00 85 1016.0
20260505073117 55 0 0.0 0.0 0.00 0.00 0.00 85 1016.0
20260505072522 55 0 0.0 0.0 0.00 0.00 0.00 85 1015.8
20260505072023 55 0 0.0 0.0 0.00 0.00 0.00 84 1015.9
20260505071545 55 0 0.0 0.0 0.00 0.00 0.00 84 1016.0
20260505071025 55 0 0.0 0.0 0.00 0.00 0.00 84 1016.0
20260505070523 56 0 0.0 0.0 0.00 0.00 0.00 84 1015.9
20260505070036 56 0 0.0 0.0 0.00 0.00 0.00 83 1015.8
20260505065522 56 0 0.0 0.0 0.00 0.00 0.00 84 1015.8
20260505065023 56 0 0.0 0.0 0.00 0.00 0.00 84 1015.9
20260505064537 56 0 0.0 0.0 0.00 0.00 0.00 84 1015.9
20260505064023 56 0 0.0 0.0 0.00 0.00 0.00 83 1015.9
20260505063523 56 0 0.0 0.0 0.00 0.00 0.00 83 1015.9
20260505063040 56 0 0.0 0.0 0.00 0.00 0.00 83 1015.9
20260505062523 56 0 0.0 0.0 0.00 0.00 0.00 83 1016.0
20260505062021 56 0 0.0 0.0 0.00 0.00 0.00 83 1016.0
20260505061538 56 0 0.0 0.0 0.00 0.00 0.00 83 1016.0
20260505061027 56 0 0.0 0.0 0.00 0.00 0.00 83 1016.1
20260505060521 56 0 0.0 0.0 0.00 0.00 0.00 82 1016.2
20260505060039 57 0 0.0 0.0 0.00 0.00 0.00 82 1016.1
20260505055523 57 0 0.0 0.0 0.00 0.00 0.00 82 1016.1
20260505055023 57 0 0.0 0.0 0.00 0.00 0.00 81 1016.2
20260505054536 57 0 0.0 0.0 0.00 0.00 0.00 81 1016.2
20260505054024 57 0 0.0 0.0 0.00 0.00 0.00 81 1016.2
20260505053522 58 0 0.0 0.0 0.00 0.00 0.00 82 1016.3
20260505053036 58 0 0.0 0.0 0.00 0.00 0.00 80 1016.4
20260505052522 58 0 0.0 0.0 0.00 0.00 0.00 80 1016.4
20260505052022 58 0 0.0 0.0 0.00 0.00 0.00 79 1016.5
20260505051535 58 0 0.0 0.0 0.00 0.00 0.00 79 1016.5
20260505051024 58 0 0.0 0.0 0.00 0.00 0.00 78 1016.5
20260505050523 59 0 0.0 0.0 0.00 0.00 0.00 78 1016.5
20260505041538 60 0 0.0 0.0 0.00 0.00 0.00 76 1016.6
20260505041022 60 0 0.0 0.0 0.00 0.00 0.00 76 1016.5
20260505040522 60 0 0.0 0.0 0.00 0.00 0.00 75 1016.5
20260505040039 61 0 0.0 0.0 0.00 0.00 0.00 75 1016.5
20260505035526 61 0 0.0 0.0 0.00 0.00 0.00 75 1016.6
20260505035021 61 0 0.0 0.0 0.00 0.00 0.00 75 1016.5
20260505034535 61 0 0.0 0.0 0.00 0.00 0.00 74 1016.5
20260505034023 61 0 0.0 0.0 0.00 0.00 0.00 74 1016.5
20260505033523 62 0 0.0 0.0 0.00 0.00 0.00 74 1016.6
20260505033039 62 0 0.0 0.0 0.00 0.00 0.00 74 1016.6
20260505032523 62 0 0.0 0.0 0.00 0.00 0.00 74 1016.6
20260505032023 62 0 0.0 0.0 0.00 0.00 0.00 74 1016.5
20260505031551 62 0 0.0 0.0 0.00 0.00 0.00 73 1016.6
20260505031022 63 0 0.0 0.0 0.00 0.00 0.00 73 1016.5
20260505030522 63 0 0.0 0.0 0.00 0.00 0.00 73 1016.6
20260505030044 63 0 0.0 0.0 0.00 0.00 0.00 73 1016.6
20260505025521 63 0 0.0 0.0 0.00 0.00 0.00 72 1016.5
20260505025022 63 0 0.0 0.0 0.00 0.00 0.00 73 1016.4
20260505024545 64 0 0.0 0.0 0.00 0.00 0.00 73 1016.5
20260505024027 64 0 0.0 0.0 0.00 0.00 0.00 73 1016.5
20260505023524 64 0 0.0 0.0 0.00 0.00 0.00 71 1016.5
20260505023040 64 0 0.0 0.0 0.00 0.00 0.00 71 1016.5
20260505022522 65 0 0.0 0.0 0.00 0.00 0.00 71 1016.4
20260505022023 65 0 0.0 0.0 0.00 0.00 0.00 70 1016.3
20260505021536 65 0 0.0 0.0 0.00 0.00 0.00 70 1016.3
20260505021025 65 0 0.0 0.0 0.00 0.00 0.00 70 1016.3
20260505020522 65 0 0.0 0.0 0.00 0.00 0.00 70 1016.3
20260505020034 66 0 0.0 0.0 0.00 0.00 0.00 70 1016.2
20260505015519 66 0 0.0 1.0 0.00 0.00 0.00 69 1016.2
20260505015022 66 0 0.0 1.0 0.00 0.00 0.00 68 1016.2
20260505014559 67 0 0.0 1.0 0.00 0.00 0.00 68 1016.1
20260505014023 67 0 0.0 1.0 0.00 0.00 0.00 67 1015.9
20260505013522 67 0 0.0 3.0 0.00 0.00 0.00 66 1015.8
20260505013034 67 0 0.0 3.0 0.00 0.00 0.00 67 1015.8
20260505012520 67 0 0.0 1.0 0.00 0.00 0.00 67 1015.7
20260505012023 67 0 0.0 1.0 0.00 0.00 0.00 67 1015.7
20260505011540 67 0 0.0 0.0 0.00 0.00 0.00 66 1015.5
20260505011022 66 0 0.0 0.0 0.00 0.00 0.00 66 1015.5
20260505010522 67 0 0.0 0.0 0.00 0.00 0.00 65 1015.4
20260505010033 67 0 0.0 0.0 0.00 0.00 0.00 63 1015.3
20260505005523 67 0 0.0 0.0 0.00 0.00 0.00 60 1015.3
20260505005023 67 0 0.0 0.0 0.00 0.00 0.00 59 1015.1
20260505004535 67 0 0.0 0.0 0.00 0.00 0.00 58 1015.1
20260505004022 68 0 0.0 0.0 0.00 0.00 0.00 55 1015.1
20260505003525 68 0 0.0 0.0 0.00 0.00 0.00 54 1015.0
20260505003038 68 0 0.0 0.0 0.00 0.00 0.00 54 1015.0
20260505002522 69 0 0.0 0.0 0.00 0.00 0.00 53 1014.8
20260505002021 69 0 0.0 0.0 0.00 0.00 0.00 53 1014.8
20260505001542 69 0 0.0 0.0 0.00 0.00 0.00 53 1014.7
20260505001019 70 0 0.0 0.0 0.00 0.00 0.00 53 1014.7
20260505000521 70 0 0.0 0.0 0.00 0.00 0.00 52 1014.7
20260505000035 71 0 0.0 0.0 0.00 0.00 0.00 51 1014.7
20260504235520 71 0 0.0 0.0 0.00 0.00 0.00 50 1014.6
20260504235022 72 0 0.0 1.0 0.00 0.00 0.00 50 1014.5
20260504234533 72 0 0.0 1.0 0.00 0.00 0.00 50 1014.5
20260504234019 72 0 0.0 0.0 0.00 0.00 0.00 51 1014.5
20260504233523 73 0 0.0 0.0 0.00 0.00 0.00 49 1014.4
20260504233035 73 0 0.0 0.0 0.00 0.00 0.00 48 1014.3
20260504232523 74 0 0.0 0.0 0.00 0.00 0.00 48 1014.3
20260504232022 74 0 0.0 1.0 0.00 0.00 0.00 47 1014.2
20260504231540 75 0 0.0 1.0 0.00 0.00 0.00 47 1014.1
20260504231022 75 0 0.0 0.0 0.00 0.00 0.00 47 1014.1
20260504230522 75 0 0.0 1.0 0.00 0.00 0.00 45 1014.1
20260504230035 76 0 0.0 1.0 0.00 0.00 0.00 45 1014.1
20260504225523 76 0 0.0 1.0 0.00 0.00 0.00 44 1014.1
20260504225021 76 319 0.0 2.0 0.00 0.00 0.00 43 1014.1
20260504224538 76 0 0.0 2.0 0.00 0.00 0.00 41 1014.0
20260504224020 76 0 0.0 2.0 0.00 0.00 0.00 43 1014.1